User: anonymous   Login
Location: Caltech
(34.1382°N, 118.1253°W)
Time: 05:36:18
(UTC-07:00)
Language:

UOSAT-12 - Orbit

View from above orbital plane
View from above orbital plane
View from above satellite
View from above satellite

Ground track
Ground track

The orbit data is extracted from the following two-line orbital elements,

1 25693U 99021A   17087.88574055 +.00000024 +00000-0 +21969-4 0  9998
2 25693 064.5576 013.1705 0027511 319.9911 039.9167 14.80723087968004
Epoch (UTC): 28 March 2017 21:15:27
Eccentricity: 0.0027511
inclination: 64.5576°
perigee height: 608 km
apogee height: 646 km
right ascension of ascending node: 13.1705°
argument of perigee: 319.9911°
revolutions per day: 14.80723087
mean anomaly at epoch: 39.9167°
orbit number at epoch: 96800

The dashed part of the orbit path shows where the satellite is in the earth's shadow,  

DLR